Regional Weather Roundup
Issued by NWS

Home | Current Version | Previous Version | Graphics & Text | Print | Product List | Glossary On
Versions: 1 2 3 4 5 6 7 8 9 10 11 12 13 14 15 16 17 18 19 20 21 22 23 24 25 26 27 28 29 30 31 32 33 34 35 36 37 38 39 40 41 42 43 44 45 46 47 48 49 50
000
ASUS43 KLMK 181510
RWRKY
KENTUCKY REGIONAL WEATHER ROUNDUP
NATIONAL WEATHER SERVICE LOUISVILLE KY
1000 AM EST THU DEC 18 2014

NOTE "FAIR" INDICATES FEW OR NO CLOUDS BELOW 12,000 FEET
WITH NO SIGNIFICANT WEATHER AND/OR OBSTRUCTIONS TO VISIBILITY.

KYZ001>023-026-027-061>063-070>075-181600-
WESTERN AND SOUTH CENTRAL KENTUCKY

CITY           SKY/WX    TMP DP  RH WIND       PRES   REMARKS
PADUCAH        CLOUDY    33  30  88 NE7       30.28S FOG     WCI  27
HENDERSON      CLOUDY    30  25  80 CALM      30.31R
OWENSBORO      CLOUDY    32  26  78 NE6       30.29F WCI  26
HOPKINSVILLE   MIX PCPN  32  29  90 N5        30.27R WCI  27
BOWLING GREEN  CLOUDY    33  26  75 CALM      30.28S
GLASGOW        CLOUDY    32  27  83 NE3       30.25F
$$

KYZ024-025-028>034-038-045-046-053-181600-
NORTH CENTRAL KENTUCKY

CITY           SKY/WX    TMP DP  RH WIND       PRES   REMARKS
LOUISVILLE/SDF CLOUDY    31  23  72 NE3       30.28F
LOUISVILLE/LOU CLOUDY    30  23  75 NE5       30.29F WCI  25
FORT KNOX      CLOUDY    29  23  78 CALM      30.27R
$$

KYZ035>037-039>044-047>052-055>060-089>105-181600-
NORTHEAST KENTUCKY

CITY           SKY/WX    TMP DP  RH WIND       PRES   REMARKS
LEXINGTON      CLOUDY    30  23  75 N7        30.26R WCI  23
COVINGTON      CLOUDY    27  18  69 CALM      30.28F
FRANKFORT      CLOUDY    29  21  72 N7        30.27R WCI  22
$$

KYZ054-064>069-076>088-106>120-181600-
SOUTHEAST KENTUCKY

CITY           SKY/WX    TMP DP  RH WIND       PRES   REMARKS
JACKSON        CLOUDY    29  23  78 CALM      30.22F
LONDON         CLOUDY    31  26  82 E3        30.21F
SOMERSET       CLOUDY    30  27  86 CALM      30.27R
MIDDLESBORO    CLOUDY   N/A N/A N/A CALM      30.23F
MONTICELLO     PTSUNNY   33  29  86 NE3       30.28R
$$



USA.gov is the U.S. government's official web portal to all federal, state and local government web resources and services.